Location: Recife
(8.0585°S, 34.8848°W)
Time: 13:19:46
(UTC-03:00)

SR - All Passes

Search period start: 14 April 2026 00:00
Search period end: 24 April 2026 00:00
Orbit: 570 x 850 km, 66.7° (Epoch: 14 April)

Date Brightness Start Highest point End Pass type
(mag) Time Alt. Az. Time Alt. Az. Time Alt. Az.
14 Apr - 00:32:51 10° N 00:38:29 59° ENE 00:43:57 10° SSE night (unlit)
14 Apr - 02:19:25 10° WSW 02:20:04 10° WSW 02:20:42 10° WSW night (unlit)
14 Apr - 11:14:20 10° SE 11:15:37 11° ESE 11:16:53 10° E daylight
14 Apr - 12:53:30 10° SW 12:57:01 26° WNW 13:00:34 10° NNW daylight
14 Apr - 23:39:14 10° NNE 23:43:29 22° ENE 23:47:40 10° ESE night (unlit)
15 Apr - 01:20:02 10° NW 01:24:57 29° WSW 01:29:42 10° S night (unlit)
15 Apr - 11:57:53 10° SSW 12:02:04 80° ESE 12:06:18 10° NNE daylight
16 Apr - 00:24:11 10° NNW 00:29:55 82° WSW 00:35:27 10° SSE night (unlit)
16 Apr - 11:03:50 10° SSE 11:07:04 21° ESE 11:10:17 10° ENE daylight
16 Apr - 12:46:13 10° WSW 12:48:23 14° WNW 12:50:35 10° NW daylight
16 Apr - 23:29:43 10° N 23:34:55 36° ENE 23:39:58 10° SE night (unlit)
17 Apr - 01:12:44 10° WNW 01:16:25 18° WSW 01:20:01 10° SSW night (unlit)
17 Apr - 11:49:24 10° SW 11:53:26 50° WNW 11:57:33 10° N daylight
17 Apr - 22:37:30 10° NE 22:39:55 13° ENE 22:42:18 10° E night (unlit)
18 Apr - 00:15:53 10° NW 00:21:21 48° WSW 00:26:38 10° S night (unlit)
18 Apr - 10:54:31 10° S 10:58:28 40° ESE 11:02:27 10° NE daylight
18 Apr - 23:20:42 10° N 23:26:21 61° ENE 23:31:47 10° SSE night (unlit)
19 Apr - 10:01:53 10° SE 10:03:24 12° ESE 10:04:55 10° E daylight
19 Apr - 11:41:20 10° SW 11:44:48 25° WNW 11:48:20 10° NNW daylight
19 Apr - 22:27:01 10° NNE 22:31:20 22° ENE 22:35:32 10° ESE night (unlit)
20 Apr - 00:07:58 10° NW 00:12:47 28° WSW 00:17:27 10° S night (unlit)
20 Apr - 10:45:39 10° SSW 10:49:50 84° ESE 10:54:05 10° NNE daylight
20 Apr - 23:12:03 10° NNW 23:17:46 79° WSW 23:23:15 10° SSE night (unlit)
21 Apr - 09:51:33 10° SSE 09:54:50 22° ESE 09:58:08 10° ENE daylight
21 Apr - 11:34:04 10° W 11:36:09 13° WNW 11:38:15 10° NW daylight
21 Apr - 22:17:32 10° N 22:22:45 37° ENE 22:27:47 10° SE night (unlit)
22 Apr - 00:00:42 10° WNW 00:04:14 17° WSW 00:07:41 10° SSW night (unlit)
22 Apr - 10:37:09 10° SW 10:41:11 48° WNW 10:45:18 10° N daylight
22 Apr - 21:25:10 10° NE 21:27:44 13° ENE 21:30:15 10° E night (unlit)
22 Apr - 23:03:44 10° NW 23:09:10 46° WSW 23:14:24 10° S night (unlit)
23 Apr - 09:42:14 10° S 09:46:12 42° ESE 09:50:15 10° NE daylight
23 Apr - 22:08:31 10° N 22:14:09 63° ENE 22:19:34 10° SSE night (unlit)
